Regional Weather Roundup
Issued by NWS Pendleton, OR

Home | Current Version | Previous Version | Text Only | Print | Product List | Glossary On
Versions: 1 2 3 4 5 6 7 8 9 10 11 12 13 14 15 16 17 18 19 20 21 22 23 24 25 26 27 28 29 30 31 32 33 34 35 36 37 38 39 40 41 42 43 44 45 46 47 48 49 50
104
ASUS46 KPDT 280625
RWRPDT
PENDLETON REGIONAL WEATHER ROUNDUP
NATIONAL WEATHER SERVICE PENDLETON OREGON
1100 PM PDT TUE JUN 27 2017

NOTE: FAIR INDICATES FEW OR NO CLOUDS BELOW 12,000 FEET WITH NO
SIGNIFICANT WEATHER AND/OR OBSTRUCTIONS TO VISIBILITY.

# INDICATES UNOFFICIAL STATION AND DATA

WAZ520-280710-
EAST SLOPES OF WASHINGTON CASCADES

CITY            SKY/WX      TMP DP  RH  WIND    PRES   REMARKS
#BULLFROG       N/A         61  45  56  S9      N/A
#CLE ELUM HS    N/A         59  47  64  NW5     29.88S
#CLE ELUM LAKE  N/A         55  46  72  CALM    30.00S
#ELK HTS DOT    N/A         61  60  97  W9      N/A
#GLENWOOD       N/A         57  48  72  CALM    29.82R
#NELSON 3SW     N/A         57  42  57  E1      30.03S
#NILE           N/A         59  44  57  CALM    29.13S
#TEANAWAY 4NE   N/A         59  48  67  CALM    N/A
#TROUT LAKE 1NE N/A         61  47  60  W6      29.83S
#TROUT LAKE 1E  N/A         61  46  58  W2      29.93S
$$

WAZ521-280710-
SIMCOE HIGHLANDS

CITY            SKY/WX      TMP DP  RH  WIND    PRES   REMARKS
#BICKLETON HS   N/A         63  44  50  N9      29.83F
#CENTERVILLE 1SWN/A         61  47  60  W14     29.79R
#GOLDENDALE 1NE N/A         61  34  36  SW2     N/A
#GOLDENDALE 4W  N/A         62  17  17  W13     29.92R
#GOODNOE HILLS  N/A         65  48  54  NW12    N/A
#LYLE 6NE       N/A         62  49  62  S7      29.83R
#PITT 4SE       N/A         57  47  69  SW12    29.87S
$$

WAZ026-280710-
KITTITAS VALLEY

CITY            SKY/WX      TMP DP  RH  WIND    PRES   REMARKS
ELLENSBURG AP   MOCLDY      65  45  48  N21G32  29.87R
6HR MIN TEMP:   64; 6HR MAX TEMP:   83;

#ELLENSBURG CWU N/A         63  46  54  NW7     29.74R
#ELLENSBURG 3NE N/A         61  48  62  N9      27.95S
#KITTITAS 3S    N/A         62  45  54  NW12    29.77R
#MANASTASH RDG  N/A         61  61  100 NW12    N/A
#ROCKY CYN DOT  N/A         63  43  48  W17G26  N/A
#RYEGRASS DOT   N/A         60  43  53  S21G30  N/A
$$

WAZ027-280710-
YAKIMA VALLEY

CITY            SKY/WX      TMP DP  RH  WIND    PRES   REMARKS
SUNNYSIDE AP    CLEAR       63  37  38  W9      29.79R
YAKIMA AIRPORT  PTCLDY      71  39  31  VRB5    29.84R
6HR MIN TEMP:   70; 6HR MAX TEMP:   90;

YAKIMA-VAGABOND MOCLDY      69  31  24  N17     29.84R
6HR MIN TEMP:   69; 6HR MAX TEMP:   87;

#GRANDVIEW      N/A         69  36  30  W2      29.77R
#MABTON         N/A         68  41  37  SW2     29.79R
#MOXEE 2E       N/A         69  N/A N/A N13     29.85R
#NACHES 2SW     N/A         64  43  46  W14     29.86R
#OUTLOOK DOT    N/A         73  29  20  W8      29.76R
#PARKER DOT     N/A         72  35  26  S16     29.81R
#TERRACE HTS    N/A         69  35  28  NW8     29.72S
#TOPPENISH      N/A         72  41  33  N9      29.69R
#I82 S UMTANUM RN/A         69  34  27  W16G25  N/A
#UNION GAP DOT  N/A         72  35  26  N13     29.85R
#W YAKIMA       N/A         67  41  39  NE3     29.77R
#WHITE SWAN 5E  N/A         64  47  54  CALM    29.76R
#ZILLAH DOT     N/A         73  34  24  W9      N/A
$$

WAZ028-280710-
LOWER COLUMBIA BASIN...WASHINGTON

CITY            SKY/WX      TMP DP  RH  WIND    PRES   REMARKS
HANFORD         MOCLDY      73  26  17  W10     29.78R
PASCO           CLEAR       68  53  59  S6      29.78R
6HR MIN TEMP:   65; 6HR MAX TEMP:   87;

PROSSER AWOS    N/A         66  41  40  W8      29.82R
RICHLAND AWOS   CLEAR       70  50  49  S9      29.78R
#BENTON CITY    N/A         68  51  55  CALM    29.65S
#CONNELL 5N     N/A         63  48  58  W1      29.74R
#CONNELL 5NW    N/A         63  51  65  CALM    29.68R
#ELTOPIA 6NW    N/A         68  43  40  NW6     28.76R
#KAHLOTUS       N/A         71  45  39  NW20    29.72S
#KENNEWICK 3S   N/A         68  52  57  CALM    29.77R
#PATERSON       N/A         68  51  55  N2      29.74R
#PROSSER DOT    N/A         66  52  61  CALM    29.79R
#SAGEMOOR 2W    N/A         70  43  38  W7      29.60S
#TOUCHET 2S     N/A         69  52  55  SW13    29.70S
#WEST PASCO     N/A         72  51  48  CALM    29.73R
$$

WAZ029-280710-
FOOTHILLS OF THE BLUES...WASHINGTON

CITY            SKY/WX      TMP DP  RH  WIND    PRES   REMARKS
WALLA WALLA AP  PTCLDY      68  48  49  S5      29.81R
6HR MIN TEMP:   68; 6HR MAX TEMP:   85;

#CLYDE 6NW      N/A         58  43  57  CALM    29.73S
#DAYTON SCHOOL  N/A         61  45  56  CALM    29.84S
#DELANEY DOT    N/A         59  47  64  CALM    29.80S
#LOWDEN 2SE     N/A         66  52  61  CALM    29.75R
#PLEASANT VIEW 1N/A         64  45  50  SW5     29.77S
#PRESCOTT       N/A         53  49  86  CALM    29.74R
#WHITMAN COLLEGEN/A         68  50  53  CALM    29.81R
#WAITSBURG 5S   N/A         61  47  60  CALM    29.85R
#WAITSBURG 6SSE N/A         60  44  55  E3      29.80R
#WAITSBURG 8N   N/A         52  N/A N/A CALM    29.78S
#WALLA WALLA 5E N/A         60  50  69  CALM    N/A
#WALLA WALLA U  N/A         68  51  55  CALM    29.76R
#WHITMAN MISSIONN/A         65  55  70  CALM    29.78R
$$

WAZ030-280710-
BLUE MOUNTAINS...WASHINGTON

CITY            SKY/WX      TMP DP  RH  WIND    PRES   REMARKS
#DIXIE 5SE      N/A         66  38  36  S2      29.81R
$$

ORZ009-041-WAZ024-280710-
COLUMBIA RIVER GORGE

CITY            SKY/WX      TMP DP  RH  WIND    PRES   REMARKS
HOOD RIVER AP   PTCLDY      64  46  52  CALM    29.92S
THE DALLES AP   CLEAR       71  45  39  W20G28  29.85S
6HR MIN TEMP:   70; 6HR MAX TEMP:   79;

#ARLINGTON AIRPON/A         66  49  54  W14     29.80R
#CELILO DOT     N/A         71  46  41  SW8     N/A
#LYLE           N/A         70  53  55  NW12G30 29.87S
#MARYHILL       N/A         66  45  47  N18G28  29.71R
#RUFUS DOT      N/A         71  N/A N/A W24     N/A
#SMITHVILLE     N/A         68  49  51  N12     29.85R

$$

ORZ510-280710-
NORTH CENTRAL OREGON

CITY            SKY/WX      TMP DP  RH  WIND    PRES   REMARKS
#ANTELOPE       N/A         58  27  30  S1      29.70R
#CHENOWITH 1W   N/A         51  35  54  NW14    N/A
#COW CYN RST AREN/A         59  28  30  SW6     N/A
#DUFUR          N/A         61  42  50  W5      29.82R
#DUFUR 9E       N/A         60  41  49  W9      29.90R
#GRASS VALLEY 1SN/A         61  37  41  W14     29.93S
#KENT DOT       N/A         53  25  33  W9      N/A
#MAUPIN SCHOOL  N/A         65  46  50  W1      29.93R
#MORO SCHOOL    N/A         63  46  54  W14     29.98R
#SHANIKO 5WSW   N/A         58  22  25  N1      N/A
#SHANIKO 4NW    N/A         57  25  29  W8      29.96R
#TYGH VALLEY 2NEN/A         59  34  39  N1      29.83R
#WAPANITIA AIRPON/A         59  43  55  W7      29.85R
#WASCO DOT      N/A         65  44  46  W7      N/A
#WASCO 5NE      N/A         62  45  54  W12     29.79R
$$

ORZ511-280710-
CENTRAL OREGON

CITY            SKY/WX      TMP DP  RH  WIND    PRES   REMARKS
BEND AIRPORT    CLEAR       61  39  44  CALM    30.00R
MADRAS AIRPORT  CLEAR       54  37  52  N10     29.98R
PRINEVILLE AP   CLEAR       57  32  38  N8      29.99R
REDMOND AIRPORT CLEAR       62  32  32  N3      29.97R
6HR MIN TEMP:   62; 6HR MAX TEMP:   85;

#ASHWOOD SCHOOL N/A         62  24  23  CALM    29.93R
#BEND 1SW       N/A         56  43  62  CALM    N/A
#BEND-AWBREY    N/A         60  41  49  NE1     29.83R
#BEND-KIM LN    N/A         62  37  39  NE1     29.78R
#CULVER         N/A         58  38  47  NE1     29.78R
#CULVER 8W      N/A         60  42  51  SE1     29.97R
#LAKE BILLY CHINN/A         61  N/A N/A SE5     29.94R
#MADRAS 4S      N/A         59  15  18  E3      N/A
#POWELL BUTTE   N/A         60  37  42  W3      29.96R
#PRINEVILLE     N/A         62  35  36  CALM    29.91R
#PRINEVILLE 3N  N/A         59  38  45  N10     29.91R
#WARM SPRINGS   N/A         64  42  45  CALM    29.75R

$$


ORZ509-280710-
EAST SLOPES OF OREGON CASCADES

CITY            SKY/WX      TMP DP  RH  WIND    PRES   REMARKS
SISTERS AWOS    N/A         61  46  58  W18G25  29.96R
#BLUE BOX PASS  N/A         50  N/A N/A W1      N/A
#CAMP SHERMAN   N/A         57  46  67  CALM    29.92R
#LA PINE 4NW    N/A         55  41  59  CALM    29.87R
#LAVA BUTTE DOT N/A         57  38  49  SE2     N/A
#SISTERS ODOT   N/A         35  21  56  W8      N/A
#SISTERS 3N     N/A         57  44  62  SW6     30.00R
#SUNRIVER       N/A         57  40  53  S1      29.98R
#TUMALO 3W      N/A         58  36  44  NW5     29.70R
#WANOGA BUTTE D N/A         52  14  22  N3      N/A

$$

ORZ044-280710-
LOWER COLUMBIA BASIN...OREGON

CITY            SKY/WX      TMP DP  RH  WIND    PRES   REMARKS
HERMISTON       PTCLDY      69  48  47  SW15    29.80R
6HR MIN TEMP:   69; 6HR MAX TEMP:   86;

#BOARDMAN SCHOOLN/A         69  50  51  SW14    29.77R
#BOARDMAN 8SW   N/A         66  48  52  SW13    29.78R
#ECHO 8SW       N/A         68  44  42  SW8     29.82R
#I-84 EX 198 DOTN/A         67  48  50  E10     N/A
#IONE SCHOOL    N/A         67  43  42  S3      29.81R
#UMATILLA       N/A         69  47  45  SW6     29.70R
$$

ORZ507-280710-
NORTHERN FOOTHILLS OF THE BLUES

CITY            SKY/WX      TMP DP  RH  WIND    PRES   REMARKS
PENDLETON AIRPT PTCLDY      64  48  56  W10     29.84R
6HR MIN TEMP:   62; 6HR MAX TEMP:   83;

#ADAMS 3WNW     N/A         61  50  67  W5      29.78R
#ATHENA         N/A         62  49  62  CALM    29.81R
#CAYUSE         N/A         67  48  50  SW2     29.78R
#HELIX SCHOOL   N/A         63  49  60  SW7     29.77R
#HELIX 3N       N/A         61  47  60  SW7     29.83R
#HOLDMAN 5SE    N/A         64  48  56  W7      29.83S
#HOLDMAN 6E     N/A         63  49  60  SW7     29.59R
#M-F GROVE ELEM N/A          0  -78  1  CALM    29.80R
#M-FREEWATER 5SEN/A         62  47  58  W2      29.83R
#PENDLETON DNTN N/A         67  43  42  CALM    29.83R
#PDT AQUATIC CTRN/A         68  44  42  CALM    29.84R
#PDT SUNRIDGE   N/A         67  46  47  CALM    29.85R
#PILOT ROCK 1S  N/A         59  38  45  CALM    29.87R
#PILOT ROCK     N/A         62  41  46  CALM    29.88R
#TUTUILLA       N/A         57  47  69  CALM    29.88R
#UMAPINE 2E     N/A         69  51  53  SW2     29.77R
#WESTON SCHOOL  N/A         64  43  46  NW3     29.78R

$$

ORZ508-280710-
SOUTHERN FOOTHILLS OF THE BLUES

CITY            SKY/WX      TMP DP  RH  WIND    PRES   REMARKS
LEXINGTON       PTCLDY      64  41  43  SW13    29.91R
#AJAX           N/A         62  33  34  S7      30.06R
#CONDON 5W      N/A         57  35  43  CALM    29.91S
#HEPPNER EOC    N/A         62  39  43  E2      29.74R
#HEPPNER 4NE    N/A         61  41  48  W8      29.78S
#LEXINGTON 2SE  N/A         64  43  46  CALM    29.83R
#MIKKALO        N/A         64  38  38  W8      29.99F
#OLEX 4N        N/A         65  43  45  W22G29  29.82F
#RUGGS 5NE      N/A         58  32  37  W3      30.07S
#RUGGS 2SW      N/A         58  37  45  W2      29.81R

$$

ORZ502-503-280710-
BLUE MOUNTAINS

CITY            SKY/WX      TMP DP  RH  WIND    PRES   REMARKS
MEACHAM         MOCLDY      52  42  69  CALM    29.94R
6HR MIN TEMP:   52; 6HR MAX TEMP:   74;

#BATTLE MTN DOT N/A         58  27  30  CALM    N/A
#CUTSFORTH PARK N/A          0  -78  1  CALM    29.73S
#GRANITE        N/A         51  32  48  CALM    29.62R
#GREENHORN 9SW  N/A         52  44  74  CALM    29.96R
#HARDMAN 10S    N/A         54  31  41  CALM    29.91S
#HEPPNER 15SE   N/A         54  34  47  S1      29.83R
#LADD CYN SMT   N/A         64  36  35  NW8     N/A
#LADD CREEK ODOTN/A         59  43  55  SW2     N/A
#LONG CREEK HS  N/A         54  37  52  CALM    N/A
#N POWDER DOT   N/A         60  40  47  N5      N/A
#PIKES PEAK     N/A         65  38  37  N14     27.99S
#SUMMERVILLE 5NWN/A         56  41  57  CALM    29.91R
#TOLLGATE       N/A         55  37  51  SW2     29.84R
#TROY SCHOOL    N/A         63  49  60  CALM    29.59R
#WESTON 4E      N/A         61  43  51  SW6     29.75R
$$

ORZ505-280710-
JOHN DAY BASIN

CITY            SKY/WX      TMP DP  RH  WIND    PRES   REMARKS
JOHN DAY        PTCLDY      65  29  26  CALM    29.94S
#JOHN DAY KJDY  N/A         68  N/A N/A W2      30.11F
#ANTELOPE 9ESE  N/A         63  29  28  SW2     N/A
#DAYVILLE SCHOOLN/A         67  36  32  CALM    29.88R
#MITCHELL       N/A         58  38  47  CALM    30.11R
#MITCHELL 8NW   N/A         62  18  18  CALM    29.82R
#MONUMENT HS    N/A         64  39  40  CALM    29.85R
#MT. VERNON 5SE N/A         64  33  31  CALM    29.90R
#SPRAY SCHOOL   N/A         67  N/A N/A CALM    N/A
$$

ORZ506-280710-
OCHOCO AND JOHN DAY HIGHLANDS

CITY            SKY/WX      TMP DP  RH  WIND    PRES   REMARKS
#HORSE RIDGE DO N/A         61  35  38  NW10    N/A
#PAULINA ODOT   N/A         66  27  23  NW6     N/A
#PINE MTN OBS   N/A         51  35  54  NW12    N/A
#PRAIRIE CITY   N/A         62  37  39  CALM    30.07R
#SENECA         N/A         60  N/A N/A CALM    N/A
#SENECA 9NW     N/A         58  35  42  CALM    29.74R
$$

ORZ049-280710-
GRANDE RONDE VALLEY

CITY            SKY/WX      TMP DP  RH  WIND    PRES   REMARKS
LA GRANDE       MOCLDY      66  37  34  NW10    29.89R
#COVE           N/A         60  47  62  N3      29.93R
#COVE SCHOOL    N/A         59  44  57  CALM    29.92R
#COVE 6NW       N/A         62  46  56  CALM    29.78R
#ELGIN 3N       N/A         58  41  53  CALM    29.87R
#ELGIN 1E       N/A         61  46  58  CALM    N/A
#IMBLER SCHOOL  N/A         61  41  48  CALM    29.85S
#ISLAND CITY 4N N/A         56  51  83  CALM    29.99R
#LA GRANDE-LEFFEN/A         63  41  44  NW6     29.90R
$$

ORZ050-280710-
WALLOWA COUNTY

CITY            SKY/WX      TMP DP  RH  WIND    PRES   REMARKS
JOSEPH AIRPORT  PTCLDY      54  39  57  S3      29.94F
#ENTERPRISE HS  N/A         55  42  61  CALM    29.65S
#IMNAHA SCHOOL  N/A         68  41  37  SE1     29.83R
#IMNAHA 10S     N/A         63  38  39  SW3     29.87R
#JOSEPH         N/A         57  44  62  CALM    29.91S
#JOSEPH 3N      N/A         51  40  66  CALM    29.96F
#JOSEPH 3W      N/A         54  44  69  SW2     29.80F
#LOSTINE        N/A         50  43  77  CALM    29.59R
#LOSTINE 3SE    N/A         51  40  66  CALM    29.95S
#MT HOWARD 8000 N/A         49  34  56  W6      30.12F
#PROMISE 1S     N/A         62  42  48  SW1     29.84F
#WALLOWA LAKE   N/A         57  43  59  SE1     29.96F
#WALLOWA SCHOOL N/A         55  42  61  CALM    29.87R



$$



USA.gov is the U.S. government's official web portal to all federal, state and local government web resources and services.